Location: Unspecified
(45.3999°N, 88.1269°W)
Time: 16:19:16
(UTC-05:00)

Okean 3 - Visible Passes

Search period start: 18 June 2018 00:00
Search period end: 28 June 2018 00:00
Orbit: 576 x 603 km, 82.5° (Epoch: 17 June)

Date Brightness Start Highest point End Pass type
(mag) Time Alt. Az. Time Alt. Az. Time Alt. Az.
18 Jun 4.4 04:10:46 10° N 04:14:51 50° ENE 04:18:56 10° SSE visible
19 Jun 3.7 04:18:45 10° N 04:22:57 76° E 04:27:09 10° SSE visible
20 Jun 6.5 02:51:55 10° NE 02:53:14 11° ENE 02:54:34 10° E visible
20 Jun 3.4 04:26:50 10° NNW 04:31:02 73° W 04:35:12 10° S visible
21 Jun 6.2 02:58:52 10° NNE 03:01:31 16° ENE 03:04:09 10° ESE visible
22 Jun 5.8 03:06:24 10° NNE 03:09:45 23° ENE 03:13:06 10° SE visible
23 Jun 5.2 03:14:08 10° N 03:17:56 32° ENE 03:21:43 10° SE visible
24 Jun 4.4 03:22:00 10° N 03:26:05 47° ENE 03:30:10 10° SSE visible
25 Jun 3.7 03:29:58 10° N 03:34:12 71° E 03:38:24 10° SSE visible
26 Jun 6.4 02:03:27 10° NE 02:04:27 11° ENE 02:05:26 10° ENE visible
26 Jun 3.4 03:38:03 10° NNW 03:42:16 78° W 03:46:29 10° S visible
27 Jun 6.1 02:10:12 10° NNE 02:12:43 15° ENE 02:15:15 10° ESE visible
27 Jun 3.7 03:46:12 10° NNW 03:50:18 51° W 03:54:24 10° S visible
